User: anonymous   Login
Location: Unspecified
(0.0000°N, 0.0000°E)
Time: 16:34:05
(UTC+00:00)
Language:

Aussat K3 - Orbit

View from above orbital plane
View from above orbital plane
View from above satellite
View from above satellite

Ground track
Ground track

The orbit data is extracted from the following two-line orbital elements,

1 18350U 87078A   18113.07987447 -.00000262  00000-0  00000+0 0  9997
2 18350  14.7737  15.0770 0009986 307.0198 244.0405  0.98908088111077
Epoch (UTC): 23 April 2018 01:55:01
Eccentricity: 0.0009986
inclination: 14.7737°
perigee height: 36130 km
apogee height: 36215 km
right ascension of ascending node: 15.0770°
argument of perigee: 307.0198°
revolutions per day: 0.98908088
mean anomaly at epoch: 244.0405°
orbit number at epoch: 11107

The dashed part of the orbit path shows where the satellite is in the earth's shadow,  

DLR